Time,TemperatureF,DewpointF,PressureIn,WindDirection,WindDirectionDegrees,WindSpeedMPH,WindSpeedGustMPH,Humidity,HourlyPrecipIn,Conditions,Clouds,dailyrainin,SoftwareType,DateUTC
2013-02-20 00:04:00,44.6,37.2,29.57,SSE,157,10.3,-999.0,75,-99.99,,,0.00,Acu-Link.com,2013-02-20 07:04:00,
2013-02-20 00:19:00,44.4,37.3,29.57,SSW,202,5.1,-999.0,76,-99.99,,,0.00,Acu-Link.com,2013-02-20 07:19:00,
2013-02-20 00:35:00,44.4,37.3,29.56,SE,135,4.3,-999.0,76,-99.99,,,0.00,Acu-Link.com,2013-02-20 07:35:00,
2013-02-20 00:50:00,44.4,37.7,29.56,SSW,202,4.7,-999.0,77,-99.99,,,0.00,Acu-Link.com,2013-02-20 07:50:00,
2013-02-20 01:05:00,44.2,37.5,29.55,South,180,6.7,-999.0,77,-99.99,,,0.00,Acu-Link.com,2013-02-20 08:05:00,
2013-02-20 01:20:00,44.2,37.5,29.54,SSW,202,8.9,-999.0,77,-99.99,,,0.00,Acu-Link.com,2013-02-20 08:20:00,
2013-02-20 01:35:00,44.1,37.3,29.55,South,180,8.3,-999.0,77,-99.99,,,0.00,Acu-Link.com,2013-02-20 08:35:00,
2013-02-20 01:51:00,43.9,37.1,29.54,SSW,202,7.4,-999.0,77,-99.99,,,0.00,Acu-Link.com,2013-02-20 08:51:00,
2013-02-20 02:18:00,43.7,37.0,29.54,South,180,8.3,-999.0,77,-99.99,,,0.00,Acu-Link.com,2013-02-20 09:18:00,
2013-02-20 02:33:00,43.0,36.9,29.54,South,180,3.1,-999.0,79,-99.99,,,0.00,Acu-Link.com,2013-02-20 09:33:00,
2013-02-20 02:48:00,42.6,36.9,29.53,SSE,157,4.3,-999.0,80,-99.99,,,0.00,Acu-Link.com,2013-02-20 09:48:00,
2013-02-20 03:03:00,42.4,37.0,29.53,West,270,3.8,-999.0,81,-99.99,,,0.00,Acu-Link.com,2013-02-20 10:03:00,
2013-02-20 03:19:00,42.4,37.0,29.52,SW,225,2.7,-999.0,81,-99.99,,,0.00,Acu-Link.com,2013-02-20 10:19:00,
2013-02-20 03:34:00,42.3,36.9,29.52,SSW,202,5.8,-999.0,81,-99.99,,,0.00,Acu-Link.com,2013-02-20 10:34:00,
2013-02-20 03:49:00,42.1,36.7,29.51,SSW,202,5.1,-999.0,81,-99.99,,,0.00,Acu-Link.com,2013-02-20 10:49:00,
2013-02-20 04:04:00,41.9,36.5,29.50,South,180,3.1,-999.0,81,-99.99,,,0.00,Acu-Link.com,2013-02-20 11:04:00,
2013-02-20 04:19:00,41.5,36.2,29.50,SW,225,4.3,-999.0,81,-99.99,,,0.00,Acu-Link.com,2013-02-20 11:19:00,
2013-02-20 04:34:00,41.0,35.9,29.49,SSW,202,4.3,-999.0,82,-99.99,,,0.00,Acu-Link.com,2013-02-20 11:34:00,
2013-02-20 04:50:00,40.5,36.0,29.49,SSW,202,3.1,-999.0,84,-99.99,,,0.00,Acu-Link.com,2013-02-20 11:50:00,
2013-02-20 05:05:00,40.3,35.8,29.48,SW,225,2.2,-999.0,84,-99.99,,,0.00,Acu-Link.com,2013-02-20 12:05:00,
2013-02-20 05:20:00,40.5,36.0,29.48,SSW,202,5.1,-999.0,84,-99.99,,,0.00,Acu-Link.com,2013-02-20 12:20:00,
2013-02-20 05:35:00,40.3,35.8,29.48,West,270,2.7,-999.0,84,-99.99,,,0.00,Acu-Link.com,2013-02-20 12:35:00,
2013-02-20 05:50:00,40.5,36.0,29.48,SSW,202,4.3,-999.0,84,-99.99,,,0.00,Acu-Link.com,2013-02-20 12:50:00,
2013-02-20 06:06:00,40.5,36.0,29.47,SW,225,3.8,-999.0,84,-99.99,,,0.00,Acu-Link.com,2013-02-20 13:06:00,
2013-02-20 06:21:00,40.3,35.8,29.47,SSW,202,5.8,-999.0,84,-99.99,,,0.00,Acu-Link.com,2013-02-20 13:21:00,
2013-02-20 06:36:00,40.1,35.7,29.47,WSW,247,4.3,-999.0,84,-99.99,,,0.00,Acu-Link.com,2013-02-20 13:36:00,
2013-02-20 06:51:00,40.5,36.0,29.47,SSW,202,4.7,-999.0,84,-99.99,,,0.00,Acu-Link.com,2013-02-20 13:51:00,
2013-02-20 07:06:00,40.6,35.9,29.47,SW,225,6.3,-999.0,83,-99.99,,,0.00,Acu-Link.com,2013-02-20 14:06:00,
2013-02-20 07:22:00,41.4,36.6,29.47,SSW,202,5.1,-999.0,83,-99.99,,,0.00,Acu-Link.com,2013-02-20 14:22:00,
2013-02-20 07:37:00,41.4,36.6,29.47,SSW,202,2.7,-999.0,83,-99.99,,,0.00,Acu-Link.com,2013-02-20 14:37:00,
2013-02-20 07:52:00,41.7,36.6,29.46,SSW,202,4.3,-999.0,82,-99.99,,,0.00,Acu-Link.com,2013-02-20 14:52:00,
2013-02-20 08:07:00,43.2,36.4,29.46,SSE,157,11.0,-999.0,77,-99.99,,,0.00,Acu-Link.com,2013-02-20 15:07:00,
2013-02-20 08:23:00,43.9,36.5,29.46,South,180,7.8,-999.0,75,-99.99,,,0.00,Acu-Link.com,2013-02-20 15:23:00,
2013-02-20 08:38:00,44.2,36.5,29.44,WNW,292,8.3,-999.0,74,-99.99,,,0.00,Acu-Link.com,2013-02-20 15:38:00,
2013-02-20 08:53:00,45.3,36.5,29.45,SSW,202,5.8,-999.0,71,-99.99,,,0.00,Acu-Link.com,2013-02-20 15:53:00,
2013-02-20 09:08:00,46.6,36.2,29.43,South,180,7.8,-999.0,67,-99.99,,,0.00,Acu-Link.com,2013-02-20 16:08:00,
2013-02-20 09:23:00,47.7,35.3,29.44,South,180,11.0,-999.0,62,-99.99,,,0.00,Acu-Link.com,2013-02-20 16:23:00,
2013-02-20 09:39:00,48.7,34.2,29.43,SSW,202,6.7,-999.0,57,-99.99,,,0.00,Acu-Link.com,2013-02-20 16:39:00,
2013-02-20 09:54:00,49.5,33.0,29.42,SSE,157,9.4,-999.0,53,-99.99,,,0.00,Acu-Link.com,2013-02-20 16:54:00,
2013-02-20 10:09:00,49.3,31.4,29.42,South,180,7.8,-999.0,50,-99.99,,,0.00,Acu-Link.com,2013-02-20 17:09:00,
2013-02-20 10:24:00,48.7,28.4,29.41,South,180,14.1,-999.0,45,-99.99,,,0.00,Acu-Link.com,2013-02-20 17:24:00,
2013-02-20 10:39:00,50.5,26.5,29.40,South,180,12.5,-999.0,39,-99.99,,,0.00,Acu-Link.com,2013-02-20 17:39:00,
2013-02-20 10:55:00,51.6,26.2,29.40,South,180,14.5,-999.0,37,-99.99,,,0.00,Acu-Link.com,2013-02-20 17:55:00,
2013-02-20 11:10:00,50.9,24.9,29.39,South,180,11.4,-999.0,36,-99.99,,,0.00,Acu-Link.com,2013-02-20 18:10:00,
2013-02-20 11:25:00,50.2,22.9,29.38,SW,225,8.9,-999.0,34,-99.99,,,0.00,Acu-Link.com,2013-02-20 18:25:00,
2013-02-20 11:40:00,50.4,23.1,29.37,South,180,7.8,-999.0,34,-99.99,,,0.00,Acu-Link.com,2013-02-20 18:40:00,
2013-02-20 11:55:00,46.9,23.9,29.38,SW,225,6.7,-999.0,40,-99.99,,,0.00,Acu-Link.com,2013-02-20 18:55:00,
2013-02-20 12:11:00,46.0,24.2,29.38,West,270,8.9,-999.0,42,-99.99,,,0.00,Acu-Link.com,2013-02-20 19:11:00,
2013-02-20 12:26:00,48.9,25.7,29.36,South,180,15.0,-999.0,40,-99.99,,,0.00,Acu-Link.com,2013-02-20 19:26:00,
2013-02-20 12:41:00,46.4,25.7,29.35,SE,135,5.8,-999.0,44,-99.99,,,0.00,Acu-Link.com,2013-02-20 19:41:00,
2013-02-20 12:56:00,46.6,25.9,29.35,SW,225,11.9,-999.0,44,-99.99,,,0.00,Acu-Link.com,2013-02-20 19:56:00,
2013-02-20 13:12:00,50.4,21.6,29.35,SSE,157,8.3,-999.0,32,-99.99,,,0.00,Acu-Link.com,2013-02-20 20:12:00,
2013-02-20 13:27:00,49.6,20.3,29.33,SSW,202,12.5,-999.0,31,-99.99,,,0.00,Acu-Link.com,2013-02-20 20:27:00,
2013-02-20 13:42:00,51.3,19.3,29.32,SSW,202,7.4,-999.0,28,-99.99,,,0.00,Acu-Link.com,2013-02-20 20:42:00,
2013-02-20 13:57:00,53.1,18.2,29.31,SSW,202,8.9,-999.0,25,-99.99,,,0.00,Acu-Link.com,2013-02-20 20:57:00,
2013-02-20 14:12:00,52.2,23.2,29.31,West,270,13.0,-999.0,32,-99.99,,,0.00,Acu-Link.com,2013-02-20 21:12:00,
2013-02-20 14:28:00,48.4,24.0,29.32,WNW,292,14.5,-999.0,38,-99.99,,,0.00,Acu-Link.com,2013-02-20 21:28:00,
2013-02-20 14:43:00,48.6,22.8,29.32,WSW,247,14.5,-999.0,36,-99.99,,,0.00,Acu-Link.com,2013-02-20 21:43:00,
2013-02-20 14:58:00,48.7,22.3,29.33,West,270,9.8,-999.0,35,-99.99,,,0.00,Acu-Link.com,2013-02-20 21:58:00,
2013-02-20 15:13:00,50.5,20.3,29.33,West,270,18.6,-999.0,30,-99.99,,,0.00,Acu-Link.com,2013-02-20 22:13:00,
2013-02-20 15:28:00,50.4,20.1,29.32,West,270,14.5,-999.0,30,-99.99,,,0.00,Acu-Link.com,2013-02-20 22:28:00,
2013-02-20 15:44:00,51.4,17.7,29.32,West,270,11.9,-999.0,26,-99.99,,,0.00,Acu-Link.com,2013-02-20 22:44:00,
2013-02-20 15:59:00,51.3,19.3,29.32,SW,225,13.0,-999.0,28,-99.99,,,0.00,Acu-Link.com,2013-02-20 22:59:00,
2013-02-20 16:14:00,47.8,27.5,29.35,NNW,337,11.9,-999.0,45,-99.99,,,0.00,Acu-Link.com,2013-02-20 23:14:00,
2013-02-20 16:29:00,44.2,28.7,29.36,NW,315,11.0,-999.0,54,-99.99,,,0.00,Acu-Link.com,2013-02-20 23:29:00,
2013-02-20 16:44:00,43.3,27.8,29.36,West,270,11.0,-999.0,54,-99.99,,,0.00,Acu-Link.com,2013-02-20 23:44:00,
2013-02-20 17:00:00,43.3,27.4,29.36,West,270,11.9,-999.0,53,-99.99,,,0.00,Acu-Link.com,2013-02-21 00:00:00,
2013-02-20 17:15:00,41.9,28.2,29.37,West,270,6.3,-999.0,58,-99.99,,,0.00,Acu-Link.com,2013-02-21 00:15:00,
2013-02-20 17:30:00,42.8,25.9,29.37,WNW,292,8.3,-999.0,51,-99.99,,,0.00,Acu-Link.com,2013-02-21 00:30:00,
2013-02-20 17:45:00,43.3,26.4,29.37,North,0,6.3,-999.0,51,-99.99,,,0.00,Acu-Link.com,2013-02-21 00:45:00,
2013-02-20 18:01:00,43.2,26.3,29.37,NW,315,4.3,-999.0,51,-99.99,,,0.00,Acu-Link.com,2013-02-21 01:01:00,
2013-02-20 18:16:00,41.2,29.2,29.38,NNE,22,4.7,-999.0,62,-99.99,,,0.00,Acu-Link.com,2013-02-21 01:16:00,
2013-02-20 18:31:00,40.3,29.8,29.40,ENE,67,7.8,-999.0,66,-99.99,,,0.00,Acu-Link.com,2013-02-21 01:31:00,
2013-02-20 18:46:00,39.9,29.9,29.41,NE,45,4.7,-999.0,67,-99.99,,,0.00,Acu-Link.com,2013-02-21 01:46:00,
2013-02-20 19:01:00,39.4,31.5,29.42,East,90,5.1,-999.0,73,-99.99,,,0.00,Acu-Link.com,2013-02-21 02:01:00,
2013-02-20 19:17:00,39.0,31.4,29.42,NE,45,2.2,-999.0,74,-99.99,,,0.00,Acu-Link.com,2013-02-21 02:17:00,
2013-02-20 19:32:00,39.0,30.8,29.42,NNE,22,3.1,-999.0,72,-99.99,,,0.00,Acu-Link.com,2013-02-21 02:32:00,
2013-02-20 19:47:00,39.2,30.9,29.42,ENE,67,3.8,-999.0,72,-99.99,,,0.00,Acu-Link.com,2013-02-21 02:47:00,
2013-02-20 20:02:00,39.2,30.6,29.42,NNE,22,4.3,-999.0,71,-99.99,,,0.00,Acu-Link.com,2013-02-21 03:02:00,
2013-02-20 20:17:00,38.8,29.9,29.41,NE,45,8.3,-999.0,70,-99.99,,,0.00,Acu-Link.com,2013-02-21 03:17:00,
2013-02-20 20:33:00,38.5,29.6,29.41,NNW,337,2.7,-999.0,70,-99.99,,,0.00,Acu-Link.com,2013-02-21 03:33:00,
2013-02-20 20:48:00,38.1,29.9,29.41,NNE,22,6.7,-999.0,72,-99.99,,,0.00,Acu-Link.com,2013-02-21 03:48:00,
2013-02-20 21:03:00,37.9,30.7,29.40,WNW,292,4.7,-999.0,75,-99.99,,,0.00,Acu-Link.com,2013-02-21 04:03:00,
2013-02-20 21:18:00,37.6,30.7,29.40,NE,45,0.0,-999.0,76,-99.99,,,0.00,Acu-Link.com,2013-02-21 04:18:00,
2013-02-20 21:33:00,36.9,29.7,29.40,NW,315,2.7,-999.0,75,-99.99,,,0.00,Acu-Link.com,2013-02-21 04:33:00,
2013-02-20 21:49:00,37.2,29.4,29.39,NNW,337,2.7,-999.0,73,-99.99,,,0.00,Acu-Link.com,2013-02-21 04:49:00,
2013-02-20 22:04:00,36.9,29.0,29.39,WNW,292,2.7,-999.0,73,-99.99,,,0.00,Acu-Link.com,2013-02-21 05:04:00,
2013-02-20 22:19:00,36.9,29.0,29.39,West,270,2.7,-999.0,73,-99.99,,,0.00,Acu-Link.com,2013-02-21 05:19:00,
2013-02-20 22:34:00,37.0,28.9,29.38,West,270,2.2,-999.0,72,-99.99,,,0.00,Acu-Link.com,2013-02-21 05:34:00,
2013-02-20 22:49:00,37.0,28.5,29.36,NW,315,2.7,-999.0,71,-99.99,,,0.00,Acu-Link.com,2013-02-21 05:49:00,
2013-02-20 23:04:00,36.7,28.9,29.36,West,270,9.4,-999.0,73,-99.99,,,0.00,Acu-Link.com,2013-02-21 06:04:00,
2013-02-20 23:20:00,34.2,29.3,29.36,WSW,247,11.4,-999.0,82,-99.99,,,0.00,Acu-Link.com,2013-02-21 06:20:00,
2013-02-20 23:35:00,33.1,28.8,29.36,West,270,11.9,-999.0,84,-99.99,,,0.00,Acu-Link.com,2013-02-21 06:35:00,
2013-02-20 23:50:00,32.7,28.1,29.36,WSW,247,6.7,-999.0,83,-99.99,,,0.00,Acu-Link.com,2013-02-21 06:50:00,